Weather History for Redmond, OR

Change the Weather History Date:

Thursday, January 9, 2014

  Actual Average Record
Temperature  
Mean Temperature 38 °F 32 °F  
Max Temperature 45 °F 42 °F 60 °F (1999)
Min Temperature 30 °F 23 °F -11 °F (1974)
Degree Days  
Heating Degree Days 27 33  
Month to date heating degree days 274 302  
Since 1 July heating degree days 3169 3142  
Cooling Degree Days 0 0  
Month to date cooling degree days 0 0  
Year to date cooling degree days 0 0  
Moisture  
Dew Point 29 °F    
Average Humidity 75    
Maximum Humidity 92    
Minimum Humidity 58    
Precipitation  
Precipitation 0.01 in 0.04 in 0.68 in (1989)
Month to date precipitation 0.15 0.32  
Year to date precipitation 0.15 0.32  
Sea Level Pressure  
Sea Level Pressure 30.00 in    
Wind  
Wind Speed 7 mph (SW)    
Max Wind Speed 24 mph    
Max Gust Speed 30 mph    
Visibility 9 miles    
Events Snow    
T = Trace of Precipitation, MM = Missing Value Source: NWS Daily Summary

Daily Weather History Graph

Daily Weather History Graph

Search for Another Location

Airport:

Trip Planner

Search our weather history database for the weather conditions in past years. The results will help you decide how hot, cold, wet, or windy it might be!

Date:

Astronomy

Jan. 09, 2014 Rise Set
Actual Time 7:39 AM PST 4:44 PM PST
Civil Twilight 7:06 AM PST 5:17 PM PST
Nautical Twilight 6:30 AM PST 5:53 PM PST
Astronomical Twilight 5:55 AM PST 6:28 PM PST
Moon 12:19 PM PST (1/9) 1:46 AM PST (1/9)
Length of Visible Light 10h 10m
Length of Day
9h 05m
Waxing Gibbous, 67% of the Moon is Illuminated
Jan 9
Waxing Gibbous
Jan 15
Full
Jan 23
Last Quarter
Jan 30
New
Feb 6
First Quarter

Hourly Weather History & Observations

Time (PST) Temp. Windchill Dew Point Humidity Pressure Visibility Wind Dir Wind Speed Gust Speed Precip Events Conditions
12:56 AM 35.1 °F 31.0 °F 32.0 °F 89% 29.96 in 10.0 mi WNW 4.6 mph - 0.01 in   Overcast
1:56 AM 35.1 °F 28.6 °F 30.0 °F 82% 29.98 in 10.0 mi WNW 8.1 mph - 0.00 in   Clear
2:38 AM 33.1 °F 21.5 °F 30.9 °F 92% 29.99 in 3.0 mi West 19.6 mph 29.9 mph 0.00 in Snow Light Snow
2:46 AM 33.1 °F 21.9 °F 30.9 °F 92% 29.99 in 2.5 mi West 18.4 mph 26.5 mph 0.00 in Snow Light Snow
2:56 AM 33.1 °F 23.0 °F 30.9 °F 92% 30.01 in 2.5 mi West 15.0 mph - 0.01 in Snow Light Snow
3:05 AM 33.1 °F 23.9 °F 30.9 °F 92% 29.99 in 6.0 mi West 12.7 mph 23.0 mph 0.00 in Snow Light Snow
3:21 AM 33.1 °F 25.5 °F 30.9 °F 92% 29.99 in 10.0 mi West 9.2 mph - 0.00 in   Scattered Clouds
3:56 AM 34.0 °F 26.0 °F 30.9 °F 89% 30.03 in 10.0 mi WSW 10.4 mph - 0.00 in   Mostly Cloudy
4:56 AM 33.1 °F 26.1 °F 30.0 °F 89% 30.04 in 10.0 mi NW 8.1 mph - 0.00 in   Partly Cloudy
5:56 AM 34.0 °F 26.6 °F 28.0 °F 79% 30.05 in 10.0 mi WNW 9.2 mph - N/A   Clear
6:56 AM 33.1 °F 26.9 °F 25.0 °F 72% 30.05 in 10.0 mi West 6.9 mph - N/A   Scattered Clouds
7:56 AM 30.9 °F 26.2 °F 28.0 °F 89% 30.08 in 10.0 mi South 4.6 mph - N/A   Mostly Cloudy
8:56 AM 34.0 °F 26.6 °F 27.0 °F 75% 30.09 in 10.0 mi SSW 9.2 mph - N/A   Mostly Cloudy
9:56 AM 34.0 °F 29.8 °F 28.0 °F 79% 30.11 in 10.0 mi SSW 4.6 mph - N/A   Mostly Cloudy
10:56 AM 36.0 °F 30.3 °F 28.9 °F 76% 30.08 in 10.0 mi SW 6.9 mph - N/A   Clear
11:56 AM 37.9 °F 33.5 °F 30.0 °F 73% 30.06 in 10.0 mi South 5.8 mph - N/A   Overcast
12:56 PM 39.0 °F 34.0 °F 27.0 °F 62% 30.03 in 10.0 mi South 6.9 mph - N/A   Overcast
1:56 PM 39.0 °F 31.0 °F 28.0 °F 65% 29.98 in 10.0 mi South 13.8 mph - N/A   Overcast
3:56 PM 39.9 °F 32.5 °F 30.0 °F 68% 29.96 in 10.0 mi SE 12.7 mph - N/A   Mostly Cloudy
4:56 PM 37.9 °F 32.1 °F 28.9 °F 70% 29.95 in 10.0 mi SSE 8.1 mph - N/A   Partly Cloudy
5:56 PM 39.9 °F 33.9 °F 30.0 °F 68% 29.91 in 10.0 mi SE 9.2 mph - N/A   Partly Cloudy
6:56 PM 37.9 °F 32.1 °F 30.0 °F 73% 29.92 in 10.0 mi East 8.1 mph - N/A   Clear
7:56 PM 36.0 °F 31.1 °F 28.9 °F 76% 29.93 in 10.0 mi NNE 5.8 mph - N/A   Clear
8:56 PM 41.0 °F - 30.0 °F 65% 29.92 in 10.0 mi Calm Calm - N/A   Clear
9:56 PM 39.9 °F 35.1 °F 30.0 °F 68% 29.96 in 10.0 mi ENE 6.9 mph - N/A   Clear
10:56 PM 44.1 °F - 30.0 °F 58% 29.96 in 10.0 mi Calm Calm - N/A   Clear
11:56 PM 41.0 °F - 30.0 °F 65% 29.99 in 10.0 mi Calm Calm - N/A   Clear